Location: Saratoga Springs
(43.0831°N, 73.7850°W)
Time: 05:19:01
(UTC-04:00)

Vanguard 2 - Pass Details

Date: 23 April 2024
Orbit: 553 x 2914 km, 32.9° (Epoch: 17 May)

Event Time Altitude Azimuth Distance (km) Brightness Sun altitude
Rises 03:48:21 0° 256° (WSW) 5,911 - -21.4°
Reaches altitude 10° 03:51:56 10° 252° (WSW) 5,141 - -20.9°
Exits shadow 03:56:00 23° 247° (WSW) 4,351 10.8 -20.3°
Maximum altitude 04:07:37 59° 179° (S) 3,202 10.4 -18.7°
Drops below altitude 10° 04:24:22 10° 106° (ESE) 5,454 12.4 -16.3°
Sets 04:28:18 0° 103° (ESE) 6,275 12.8 -15.7°
